TimeEST,TemperatureF,Dew PointF,Humidity,Sea Level PressureIn,VisibilityMPH,Wind Direction,Wind SpeedMPH,Gust SpeedMPH,PrecipitationIn,Events,Conditions,WindDirDegrees,DateUTC
12:13 AM,26.1,22.3,86,30.23,5.0,NNW,8.1,-,N/A,Snow,Light Snow,330,2013-03-07 05:13:00
12:33 AM,25.3,21.7,86,30.23,3.0,NW,9.2,-,N/A,Snow,Light Snow,320,2013-03-07 05:33:00
12:53 AM,25.2,20.8,84,30.23,5.0,NNW,8.1,17.3,N/A,Snow,Light Snow,330,2013-03-07 05:53:00
1:13 AM,24.8,20.7,84,30.23,10.0,NW,9.2,-,N/A,,Overcast,320,2013-03-07 06:13:00
1:33 AM,24.8,20.3,83,30.24,10.0,NW,8.1,-,N/A,,Overcast,320,2013-03-07 06:33:00
1:53 AM,24.6,19.9,82,30.25,10.0,NW,9.2,-,N/A,,Overcast,310,2013-03-07 06:53:00
2:13 AM,24.4,19.9,83,30.25,10.0,NW,8.1,-,N/A,,Overcast,320,2013-03-07 07:13:00
2:33 AM,24.3,19.4,82,30.25,10.0,NW,9.2,-,N/A,,Overcast,320,2013-03-07 07:33:00
2:53 AM,24.3,19.4,82,30.25,10.0,NW,6.9,-,N/A,,Overcast,320,2013-03-07 07:53:00
3:13 AM,23.9,19.2,82,30.25,10.0,NW,9.2,-,N/A,,Overcast,310,2013-03-07 08:13:00
3:33 AM,23.7,18.9,82,30.25,10.0,NW,8.1,-,N/A,,Overcast,310,2013-03-07 08:33:00
3:53 AM,23.7,18.9,82,30.26,10.0,NW,8.1,-,N/A,,Overcast,310,2013-03-07 08:53:00
4:13 AM,23.5,18.9,82,30.26,10.0,WNW,8.1,-,N/A,,Overcast,300,2013-03-07 09:13:00
4:33 AM,23.4,18.5,82,30.26,10.0,WNW,8.1,-,N/A,,Overcast,290,2013-03-07 09:33:00
4:53 AM,23.0,18.5,83,30.26,10.0,West,6.9,-,N/A,,Overcast,280,2013-03-07 09:53:00
5:13 AM,22.3,18.3,85,30.26,10.0,West,6.9,-,N/A,,Overcast,280,2013-03-07 10:13:00
5:33 AM,22.1,18.1,85,30.27,10.0,WNW,8.1,-,N/A,,Overcast,290,2013-03-07 10:33:00
5:53 AM,22.1,18.3,85,30.27,10.0,WNW,6.9,-,N/A,,Overcast,300,2013-03-07 10:53:00
6:13 AM,22.3,18.1,84,30.27,10.0,WNW,6.9,-,N/A,,Overcast,290,2013-03-07 11:13:00
6:33 AM,22.5,18.1,83,30.28,10.0,NW,5.8,-,N/A,,Overcast,310,2013-03-07 11:33:00
6:53 AM,22.8,18.1,82,30.28,10.0,WNW,5.8,-,N/A,,Overcast,300,2013-03-07 11:53:00
7:13 AM,23.0,18.0,81,30.29,10.0,WNW,5.8,-,N/A,,Overcast,290,2013-03-07 12:13:00
7:33 AM,23.0,17.8,80,30.30,10.0,WNW,8.1,-,N/A,,Overcast,300,2013-03-07 12:33:00
7:53 AM,23.4,17.6,79,30.30,10.0,West,9.2,-,N/A,,Overcast,280,2013-03-07 12:53:00
8:13 AM,23.5,17.6,78,30.31,10.0,WNW,6.9,-,N/A,,Overcast,300,2013-03-07 13:13:00
8:33 AM,23.7,17.1,76,30.31,10.0,WNW,6.9,-,N/A,,Overcast,290,2013-03-07 13:33:00
8:53 AM,23.9,16.9,75,30.32,10.0,West,9.2,-,N/A,,Overcast,280,2013-03-07 13:53:00
9:13 AM,24.3,16.9,73,30.32,10.0,WNW,10.4,-,N/A,,Overcast,290,2013-03-07 14:13:00
9:33 AM,24.3,17.4,75,30.33,10.0,WNW,9.2,-,N/A,,Overcast,300,2013-03-07 14:33:00
9:53 AM,24.4,17.6,75,30.33,10.0,WNW,8.1,-,N/A,,Overcast,290,2013-03-07 14:53:00
10:13 AM,24.8,17.6,74,30.33,10.0,WNW,10.4,16.1,N/A,,Overcast,300,2013-03-07 15:13:00
10:33 AM,25.5,17.8,72,30.33,10.0,WNW,9.2,-,N/A,,Overcast,290,2013-03-07 15:33:00
10:53 AM,25.7,18.3,74,30.33,10.0,WNW,8.1,-,N/A,,Overcast,300,2013-03-07 15:53:00
11:13 AM,26.6,18.7,72,30.33,10.0,NW,8.1,-,N/A,,Overcast,320,2013-03-07 16:13:00
11:34 AM,27.3,18.9,70,30.33,10.0,NW,8.1,-,N/A,,Overcast,310,2013-03-07 16:34:00
11:53 AM,28.2,19.0,68,30.33,10.0,WNW,8.1,-,N/A,,Overcast,300,2013-03-07 16:53:00
12:13 PM,28.2,18.9,68,30.34,10.0,NW,6.9,-,N/A,,Overcast,310,2013-03-07 17:13:00
12:33 PM,28.6,19.0,67,30.34,10.0,WNW,9.2,-,N/A,,Overcast,290,2013-03-07 17:33:00
12:53 PM,29.5,19.4,66,30.34,10.0,WNW,8.1,-,N/A,,Overcast,290,2013-03-07 17:53:00
1:13 PM,29.5,18.9,65,30.33,10.0,WNW,6.9,-,N/A,,Overcast,300,2013-03-07 18:13:00
1:33 PM,29.3,18.7,65,30.33,10.0,NW,8.1,-,N/A,,Overcast,320,2013-03-07 18:33:00
1:53 PM,29.8,19.2,65,30.33,10.0,NW,8.1,-,N/A,,Overcast,320,2013-03-07 18:53:00
2:13 PM,30.0,19.2,64,30.33,10.0,WNW,6.9,-,N/A,,Overcast,290,2013-03-07 19:13:00
2:33 PM,30.0,19.4,65,30.33,10.0,NW,4.6,-,N/A,,Overcast,320,2013-03-07 19:33:00
2:53 PM,30.6,19.6,64,30.34,10.0,NNW,3.5,-,N/A,,Overcast,330,2013-03-07 19:53:00
3:13 PM,29.1,20.1,69,30.34,10.0,WSW,6.9,-,N/A,,Overcast,240,2013-03-07 20:13:00
3:33 PM,29.3,20.3,69,30.34,10.0,West,10.4,-,N/A,,Overcast,270,2013-03-07 20:33:00
3:53 PM,29.1,19.9,69,30.35,10.0,West,6.9,-,N/A,,Overcast,260,2013-03-07 20:53:00
4:13 PM,29.1,20.1,69,30.35,10.0,West,10.4,-,N/A,,Overcast,270,2013-03-07 21:13:00
4:33 PM,29.3,20.1,69,30.35,10.0,West,9.2,-,N/A,,Overcast,270,2013-03-07 21:33:00
4:53 PM,29.3,20.3,69,30.35,10.0,West,9.2,-,N/A,,Overcast,270,2013-03-07 21:53:00
5:13 PM,29.1,20.7,71,30.35,10.0,West,9.2,-,N/A,,Overcast,270,2013-03-07 22:13:00
5:33 PM,28.9,20.3,70,30.36,10.0,West,9.2,-,N/A,,Overcast,280,2013-03-07 22:33:00
5:53 PM,28.9,20.3,70,30.37,10.0,West,6.9,-,N/A,,Overcast,280,2013-03-07 22:53:00
6:13 PM,28.8,20.7,72,30.37,10.0,West,6.9,-,N/A,,Overcast,270,2013-03-07 23:13:00
6:33 PM,28.8,21.0,73,30.38,10.0,West,5.8,-,N/A,,Overcast,270,2013-03-07 23:33:00
6:53 PM,28.4,21.2,74,30.38,10.0,West,6.9,-,N/A,,Overcast,270,2013-03-07 23:53:00
8:33 PM,28.2,21.6,76,30.40,10.0,NNW,4.6,-,N/A,,Overcast,330,2013-03-08 01:33:00
8:53 PM,27.3,21.2,78,30.40,10.0,NNW,4.6,-,N/A,,Mostly Cloudy,330,2013-03-08 01:53:00
9:13 PM,26.4,21.4,81,30.40,10.0,NW,5.8,-,N/A,,Clear,310,2013-03-08 02:13:00
9:33 PM,26.6,20.8,79,30.40,10.0,WNW,6.9,-,N/A,,Clear,300,2013-03-08 02:33:00
9:53 PM,26.1,20.5,79,30.40,10.0,NW,6.9,-,N/A,,Clear,320,2013-03-08 02:53:00
10:13 PM,25.5,20.3,81,30.40,10.0,WNW,5.8,-,N/A,,Clear,300,2013-03-08 03:13:00
10:34 PM,25.3,20.3,81,30.41,10.0,WNW,5.8,-,N/A,,Clear,300,2013-03-08 03:34:00
10:53 PM,25.2,20.3,82,30.41,10.0,WNW,5.8,-,N/A,,Clear,300,2013-03-08 03:53:00
11:13 PM,25.2,20.8,84,30.41,10.0,WNW,5.8,-,N/A,,Mostly Cloudy,300,2013-03-08 04:13:00
11:34 PM,25.9,21.0,82,30.41,10.0,WNW,5.8,-,N/A,,Overcast,300,2013-03-08 04:34:00
11:53 PM,25.9,21.0,82,30.40,10.0,WNW,4.6,-,N/A,,Overcast,300,2013-03-08 04:53:00